Regional Weather Roundup
Issued by NWS

Home | Current Version | Previous Version | Graphics & Text | Print | Product List | Glossary On
Versions: 1 2 3 4 5 6 7 8 9 10 11 12 13 14 15 16 17 18 19 20 21 22 23 24 25 26 27 28 29 30 31 32 33 34 35 36 37 38 39 40 41 42 43 44 45 46 47 48 49 50
000
ASUS45 KBOU 312207
RWRCO

WEATHER ROUNDUP FOR COLORADO
NATIONAL WEATHER SERVICE DENVER/BOULDER CO
400 PM MDT TUE MAY 31 2016

NOTE: "FAIR" INDICATES FEW OR NO CLOUDS BELOW 12000 FEET WITH NO
SIGNIFICANT WEATHER AND/OR OBSTRUCTIONS TO VISIBILITY.

COZ001>005-013-030-031-312300-
...NORTHWEST COLORADO...

CITY           SKY/WX    TMP DP  RH WIND       PRES   REMARKS
CRAIG          FAIR      70  33  25 W9G16     30.08F
HAYDEN         FAIR      66  28  24 NW13G21   30.10F
MEEKER         FAIR      73  27  18 VRB7      30.07
MOUNT WERNER   NOT AVBL
STEAMBOAT SPGS FAIR      66  30  26 SW5       30.10S
WALDEN         NOT AVBL
$$

COZ006>008-011-312300-
...WEST CENTRAL VALLEYS...

CITY           SKY/WX    TMP DP  RH WIND       PRES   REMARKS
GRAND JUNCTION FAIR      81  30  15 NW10G18   29.92F
MONTROSE       FAIR      79  31  17 N14G21    29.99F
EAGLE          MOSUNNY   73  27  17 NW15G22   30.05F
RIFLE          FAIR      80  31  16 N10G18    29.98F
DELTA          NOT AVBL
NUCLA          FAIR      79  25  13 CALM      30.02F
$$

COZ017>023-064>068-312300-
...SOUTHWEST COLORADO...

CITY           SKY/WX    TMP DP  RH WIND       PRES   REMARKS
DURANGO        FAIR      78  19  11 W14       30.00F
CORTEZ         FAIR      81  22  11 SW7       29.97F
PAGOSA SPRINGS FAIR      74   8   7 S8        30.06F
TELLURIDE      LGT RAIN  58  30  34 N5        30.22S
WOLF CREEK PAS FAIR      46  18  31 W15       30.36F
$$

COZ009-010-012-014-032>034-037-058>063-312300-
...CENTRAL COLORADO...

CITY           SKY/WX    TMP DP  RH WIND       PRES   REMARKS
ASPEN          FAIR      64  31  28 SE7       30.13S
BUENA VISTA    FAIR      71  16  12 W9        30.07S
COPPER MTN     NOT AVBL
BERTHOUD PASS  PTSUNNY   32  23  69 NW21G29   30.36F WCI  20
COTTONWOOD PAS PTSUNNY   63  14  15 W6        30.20F
GUNNISON       PTSUNNY   70  25  18 NW9       30.10F
KREMMLING      FAIR      68  27  21 N17G29    30.10F
LEADVILLE      PTSUNNY   55  24  30 SW16      30.23R
MONARCH PASS   FAIR      52  23  32 NW14G30   30.44S
SALIDA         FAIR      77   8   7 W8G18     30.10F
SUNLIGHT       PTSUNNY   54  28  37 CALM      30.33F
WILKERSON PASS CLOUDY    45  37  76 E12G20    30.33S
$$

COZ069>075-312300-
...SAN LUIS VALLEY/SANGRE DE CRISTO MOUNTAINS...

CITY           SKY/WX    TMP DP  RH WIND       PRES   REMARKS
ALAMOSA        FAIR      72  26  18 VRB3      30.02F
LA VETA PASS   FAIR      57  43  58 NE10G16   30.24F
SAGUACHE       FAIR      70  27  19 W13       30.08F
$$

COZ035-036-038>040-312300-
...NORTHERN COLORADO FRONT RANGE...

CITY           SKY/WX    TMP DP  RH WIND       PRES   REMARKS
DENVER INTL AP PTSUNNY   63  49  60 NE8G20    30.07S
DMNS CITY PARK   N/A     65  49  57 N12G18    30.07S
AURORA         PTSUNNY   62  50  63 NE15      30.07S
FRONT RANGE AP PTSUNNY   63  48  59 NE13      30.08S
ERIE MUNI ARPT FAIR      65  46  50 NE7       30.07S
BOULDER MUN AP FAIR      66  45  45 NE7       30.07S
CENTENNIAL     PTSUNNY   63  48  58 NE13G24   30.06R THUNDER
BROOMFIELD     PTSUNNY   64  46  52 N5        30.08F
FORT COLLINS   PTSUNNY   64  48  55 CALM      30.07S
LONGMONT       PTSUNNY   71  45  40 E5        30.08F
$$

COZ041-046-047-076>085-087-088-312300-
...PIKES PEAK/PALMER DIVIDE AND SOUTHERN FOOTHILLS...

CITY           SKY/WX    TMP DP  RH WIND       PRES   REMARKS
COLO. SPRINGS  PTSUNNY   63  45  51 E13       30.10R THUNDER
A. F. ACADEMY  TSTM      59  48  67 SE12      30.09R
SCHRIEVER AFB  NOT AVBL
ELLICOTT       FAIR       1  32 100 SE8       30.07S WCI -13
FALCON         CLOUDY    59  44  57 S6        30.14R
FORT CARSON    FAIR      66  47  50 SE12      30.05S
LIMON          PTSUNNY   66  48  52 S9        30.07S
MONUMENT HILL  PTSUNNY   55  46  71 S15G21    30.11F
TRINIDAD       FAIR      67  45  45 SE9       30.03F
$$

COZ042>045-048>051-090-091-312300-
...NORTHEAST COLORADO...

CITY           SKY/WX    TMP DP  RH WIND       PRES   REMARKS
GREELEY ARPT   FAIR      66  48  52 SE7       30.07S
AKRON          PTSUNNY   64  45  49 VRB5      30.06F
BURLINGTON     FAIR      71  45  39 NE9       30.03F
WRAY           NOT AVBL
STERLING       PTSUNNY   64  46  52 N6        30.04F
HOLYOKE        NOT AVBL
FORT MORGAN    FAIR      69  44  40 NE3       30.06F
$$

COZ086-089-092>099-312300-
...SOUTHEAST COLORADO...

CITY           SKY/WX    TMP DP  RH WIND       PRES   REMARKS
PUEBLO         FAIR      73  49  42 SE14G20   29.99F
LA JUNTA       FAIR      76  49  38 E9G20     29.97F
LAMAR          PTSUNNY   76  52  43 E13       29.95F
SPRINGFIELD      N/A     70  55  59 E10       29.99F
$$



USA.gov is the U.S. government's official web portal to all federal, state and local government web resources and services.